This is the latest recevied weather packets stored in our database for station/object OK2ZAW-21. If no packets are shown the sender has not sent any weather packets the latest 1 day(s).
| Time | Temp. | Humidity | Pressure | Rain* | Wind** | Luminosity | Snow |
|---|---|---|---|---|---|---|---|
| 1778075155 | 20° C | 50% | 1008.7 hPa | - | - | 438 W/m² | - |
| 1778075149 | 20° C | 50% | 1008.7 hPa | - | - | 438 W/m² | - |
| 1778075117 | 20° C | 50% | 1008.8 hPa | - | - | 438 W/m² | - |
| 1778075111 | 20° C | 50% | 1008.8 hPa | - | - | 438 W/m² | - |
| 1778075079 | 20° C | 50% | 1008.8 hPa | - | - | 438 W/m² | - |
| 1778075023 | 20° C | 52% | 1008.8 hPa | - | - | 438 W/m² | - |
| 1778074993 | 20° C | 51% | 1008.7 hPa | - | - | 438 W/m² | - |
| 1778074793 | 20.56° C | 52% | 1008.8 hPa | - | - | 438 W/m² | - |
| 1778074763 | 20.56° C | 52% | 1008.8 hPa | - | - | 438 W/m² | - |
| 1778074282 | 18.89° C | 56% | 1009 hPa | - | - | 438 W/m² | - |
| 1778074186 | 18.89° C | 57% | 1009 hPa | - | - | 438 W/m² | - |
| 1778074092 | 18.89° C | 56% | 1009 hPa | - | - | 438 W/m² | - |
| 1778074066 | 18.89° C | 56% | 1009 hPa | - | - | 438 W/m² | - |
| 1778073984 | 18.89° C | 56% | 1008.9 hPa | - | - | 438 W/m² | - |
| 1778073932 | 18.89° C | 56% | 1009 hPa | - | - | 438 W/m² | - |
| 1778073814 | 18.89° C | 56% | 1009 hPa | - | - | 438 W/m² | - |
| 1778073466 | 19.44° C | 53% | 1009.1 hPa | - | - | 438 W/m² | - |
| 1778073414 | 20° C | 53% | 1009.1 hPa | - | - | 438 W/m² | - |
| 1778073370 | 20° C | 53% | 1009.2 hPa | - | - | 438 W/m² | - |
| 1778073314 | 20° C | 53% | 1009.2 hPa | - | - | 438 W/m² | - |
| 1778073282 | 20° C | 52% | 1009.2 hPa | - | - | 438 W/m² | - |
| 1778073276 | 20° C | 52% | 1009.2 hPa | - | - | 438 W/m² | - |
| 1778073258 | 20° C | 53% | 1009.2 hPa | - | - | 438 W/m² | - |
| 1778073252 | 20° C | 53% | 1009.2 hPa | - | - | 438 W/m² | - |
| 1778073226 | 20° C | 53% | 1009.3 hPa | - | - | 438 W/m² | - |
* Rain since midnight (hover to see other rain measurements)
** Current wind speed in m/s (hover to see current wind gust speed)